Flag for U.S.A. Weather past 2 weeks in Chicago, Illinois, U.S.A.

Now
35 °F

Drizzle. Fog.


Feels Like: 25 °F
Forecast: 27 / 38 °F
Wind: 16 mph from Southwest

Location: Chicago Midway Airport

Current Time: Mar 3, 2015 at 1:21:52 PM

Latest Report: Mar 3, 2015 at 12:53 PM


Visibility: 2 mi

Pressure: 29.67 "Hg

Humidity: 88%

Dew point: 32 °F

Location of ChicagoLocation

Historic Weather in Chicago — Graph

°F

Chicago temperature yesterday

Maximum temperature yesterday: 33 °F (at 12:53 PM)
Minimum temperature yesterday: 16 °F (at 5:53 AM)
Average temperature yesterday: 25 °F

Past Weeks' High & Low Weather Summary

 TemperatureHumidityPressure
High34 °F (Mar 3, 11:53 AM)89% (Mar 3, 7:53 AM)30.81 "Hg (Mar 3, 7:53 AM)
Low-4 °F (Feb 19, 4:53 AM)29% (Feb 16, 12:53 PM)29.70 "Hg (Mar 3, 11:53 AM)
Average16 °F60%30.29 "Hg
* Reported Feb 16 11:53 AM — Mar 3 11:53 AM, Chicago, Weather by CustomWeather, © 2015

Note: Actual official high and low records may vary slightly from our data, if they occured in-between our weather recording intervals... More about our weather records

Advertising

Chicago weather history for previous 24 hours

 ConditionsComfort  
Time TempWeatherWind HumidityBarometerVisibility
11:53 AM
Tue, Mar 3
34 °FFog.17 mph85%29.70 "Hg2 mi
10:53 AM33 °FLight rain. Fog.16 mph88%29.73 "Hg2 mi
9:53 AM32 °FLight freezing rain. Ice fog.14 mph88%29.77 "Hg3 mi
8:53 AM30 °FLight freezing rain. Ice fog.15 mph89%29.82 "Hg2 mi
7:53 AM29 °FLight freezing rain. Ice fog.16 mph89%29.88 "Hg2 mi
6:53 AM28 °FLight freezing rain. Ice fog.14 mph85%29.95 "Hg2 mi
6:02 AM27 °FLight freezing rain. Ice fog.15 mph85%29.97 "Hg2 mi
4:53 AM27 °FLight snow. Ice fog.9 mph75%30.09 "Hg1 mi
3:53 AM29 °FSleet. Overcast.8 mph58%30.11 "Hg9 mi
2:53 AM28 °FLight snow. Overcast.9 mph64%30.13 "Hg9 mi
1:53 AM28 °FOvercast.8 mph64%30.20 "Hg9 mi
12:53 AM28 °FOvercast.8 mph61%30.26 "Hg10 mi
11:53 PM
Mon, Mar 2
28 °FOvercast.7 mph61%30.28 "Hg10 mi
10:53 PM28 °FOvercast.7 mph56%30.32 "Hg10 mi
9:53 PM28 °FOvercast.9 mph56%30.35 "Hg10 mi
8:53 PM28 °FOvercast.8 mph58%30.38 "Hg10 mi
7:53 PM28 °FOvercast.12 mph56%30.40 "Hg10 mi
6:53 PM29 °FMostly cloudy.8 mph54%30.42 "Hg10 mi
5:53 PM30 °FMostly cloudy.8 mph56%30.43 "Hg9 mi
4:53 PM30 °FMostly cloudy.8 mph64%30.45 "Hg10 mi
3:53 PM31 °FPartly sunny.10 mph59%30.46 "Hg10 mi
2:53 PM33 °FPartly sunny.6 mph43%30.48 "Hg10 mi
1:53 PM33 °FPartly sunny.No wind41%30.50 "Hg10 mi
Weather by CustomWeather, © 2015

See weather overviewHow to use our weather pages